Tracking 19575 objects as of 20-Feb-2019
HD Live streaming from Space Station
objects crossing your sky now

NAVSTAR 64 (USA 206)

Track NAVSTAR 64 (USA 206) now!
NAVSTAR 64 (USA 206) is classified as:


NORAD ID: 35752
Int'l Code: 2009-043A
Perigee: 20,045.5 km
Apogee: 20,332.4 km
Inclination: 54.4 °
Period: 718.0 minutes
Semi major axis: 26559 km
RCS: 6.3 m2 (large)
Launch date: August 17, 2009
Source: United States (US)
Launch site: AIR FORCE EASTERN TEST RANGE (AFETR)
PRN: 5
aabbcc
Your satellite tracking list
Your tracking list is empty




NASA's NSSDC Master Catalog

Two Line Element Set (TLE):
1 35752U 09043A   19050.84745865 -.00000002 +00000-0 +00000-0 0  9993
2 35752 054.3881 134.6603 0054022 039.0652 050.7969 02.00568191069726
Source of the keplerian elements: AFSPC